DIRECTV 15

Last updated on Sat Aug 15 2026 00:02:59 GMT+0000 (Coordinated Universal Time)

1 40663U 15026A 26226.54760265 -.00000117 00000+0 00000+0 0 9994 2 40663 0.0272 89.4377 0000286 302.2064 25.5555 1.00268833 41040
UTC large
Height (km)
Speed (km/s)
/
Latitude / Longitude
Inclination (degrees)
Orbital Period (minutes)
Azimuth
Elevation
Range (km)
Doppler Factor

Next 0 passes for location: London (51.5072 / 0.1276)

No passes found over London.
DIRECTV 15